[[{"header":{"parameterUnit":"m.s-1","parameterCategory":2,"la1":30.2991,"la2":30.254,"lo1":-89.0895,"lo2":-89.0444,"dy":0.0017,"dx":0.0017,"nx":28,"ny":28,"refTime":"2024-04-02T03:00:00:Z","depth":"0","parameterNumber":2,"parameterNumberName":"U-component_of_CURRENTS"},"data":[0,0,0,0,0,0,0,0,0,0,0,0,0,0,0,0,0,0,0,0,0,0,0,0,0,0,0,0,0,0,0,0,0,0,0,0,0,0,0,0,0,0,0,0,0,0,0,0,0,0,0,0,0,0,0,0,0,0,0.194,0.1941,0,0.1973,0.1973,0.1973,0.1972,0.1972,0.1971,0.1971,0.1977,0.1978,0.1978,0,0,0,0,0,0,0,0,0,0,0,0,0,0.1881,0.1882,0.194,0.1941,0.1942,0.1973,0.1973,0.1973,0.1972,0.1972,0.1971,0.1971,0.1977,0.1978,0.1978,0,0,0,0,0,0,0,0,0,0,0,0,0,0.1908,0.1882,0.194,0.1946,0.1947,0.1973,0.1973,0.1974,0.1972,0.1972,0.1971,0.1971,0.1977,0.1978,0.1978,0.1992,0,0,0.198,0.1981,0,0,0,0,0,0,0,0,0.1906,0.191,0.1944,0.1945,0.1947,0.1969,0.1955,0.1979,0.1972,0.1961,0.1971,0.197,0.1974,0.1975,0.198,0.1992,0.1992,0.198,0.1981,0.1981,0.1981,0,0,0,0,0,0,0,0.1904,0.1908,0.1952,0.1945,0.1946,0.1948,0.1951,0.1959,0.1968,0.1962,0.1962,0.1968,0.1974,0.1979,0.198,0.1992,0.198,0.1981,0.1981,0.1982,0.2048,0.205,0,0,0,0,0,0,0.1904,0.1907,0.1951,0.1953,0.1927,0.195,0.1953,0.1961,0.1968,0.1969,0.1969,0.1968,0.1978,0.1979,0.198,0.2036,0.1981,0.1982,0.1982,0.2047,0.2049,0.205,0,0,0,0,0,0,0.1903,0.1908,0.1949,0.1932,0.1937,0.1951,0.196,0.1962,0.197,0.1974,0.1974,0.1975,0.1978,0.1979,0.1995,0.2035,0.1982,0.1983,0.2045,0.2048,0.2049,0.2124,0,0,0,0,0,0,0.1901,0.1907,0.1914,0.1932,0.1938,0.1969,0.1961,0.1963,0.1975,0.1975,0.198,0.198,0.1977,0.1994,0.1996,0.2035,0.1983,0.2044,0.2046,0.2049,0.2119,0.2128,0.2135,0,0,0,0,0,0.1899,0.1909,0.1914,0.1919,0.1946,0.197,0.1974,0.1981,0.1976,0.1985,0.199,0.198,0.2012,0.1996,0.1997,0.2038,0.2042,0.2046,0.2049,0.2116,0.2126,0.2135,0,0,0,0,0,0,0.1884,0.1911,0.1916,0.1933,0.1953,0.197,0.1981,0.1984,0.1995,0.1995,0.1992,0.1994,0.2026,0.2017,0.1999,0.2064,0.2028,0.2031,0.2079,0.2088,0.2096,0.21,0.1984,0,0,0,0,0,0.1885,0.1902,0.1925,0.194,0.1951,0.1967,0.1977,0.1984,0.1997,0.2001,0.2007,0.2017,0.2041,0.205,0.2062,0.2093,0.2097,0.212,0.2128,0.2135,0.2139,0.2178,0.219,0.206,0.206,0.206,0,0,0.1883,0.1901,0.1909,0.1938,0.1954,0.1984,0.1972,0.1993,0.2021,0.2001,0.2035,0.2043,0.2053,0.2093,0.2108,0.2091,0.2178,0.2139,0.2145,0.2145,0.2183,0.2196,0.2207,0.2062,0.2062,0.2062,0,0,0.1892,0.1905,0.1924,0.1947,0.1977,0.1994,0.2002,0.2026,0.2039,0.2071,0.2073,0.21,0.2124,0.2149,0.2163,0.2219,0.2217,0.2225,0.2273,0.2312,0.2323,0.2333,0.2371,0.2383,0.2232,0.2232,0.2232,0,0.1888,0.192,0.1933,0.1963,0.1987,0.2002,0.2033,0.2056,0.2083,0.2103,0.2089,0.2151,0.2155,0.2221,0.2244,0.2239,0.2257,0.2238,0.2323,0.2333,0.2341,0.2378,0.2391,0.2236,0.2236,0.2235,0.2235,0,0.1916,0.1946,0.1961,0.2009,0.2034,0.2064,0.21,0.2126,0.2143,0.2168,0.2224,0.2236,0.2273,0.2288,0.2284,0.2358,0.2351,0.2328,0.23,0.2359,0.2393,0.2406,0.2242,0.224,0.2239,0.2238,0,0,0.1903,0.1968,0.1975,0.2005,0.2063,0.2085,0.2141,0.2196,0.2241,0.2267,0.2324,0.2368,0.2373,0.2389,0.2395,0.243,0.2511,0.241,0.241,0.245,0.2605,0.262,0.2635,0.2506,0.2508,0.251,0.261,0,0.1925,0.1981,0.2014,0.2076,0.211,0.215,0.2205,0.2255,0.2298,0.2356,0.2385,0.2438,0.2415,0.2442,0.2476,0.2499,0.2544,0.2487,0.2539,0.2541,0.2549,0.265,0.264,0.2731,0.2622,0.2624,0.2625,0,0.1946,0.1983,0.2038,0.2116,0.2136,0.2175,0.2262,0.2316,0.2402,0.2436,0.2492,0.2514,0.258,0.2542,0.2624,0.259,0.2608,0.262,0.2624,0.2618,0.2579,0.2651,0.2756,0.275,0.2643,0.2642,0.2641,0,0.1924,0.2003,0.2045,0.2071,0.2158,0.2192,0.2246,0.2335,0.2381,0.249,0.2525,0.2607,0.2644,0.2682,0.2711,0.2676,0.2795,0.2744,0.278,0.278,0.2773,0.2769,0.2878,0.2811,0.2811,0.281,0.281,0,0.1936,0.197,0.2036,0.2058,0.2116,0.2185,0.2255,0.2328,0.2419,0.2481,0.2558,0.2615,0.2679,0.2746,0.2759,0.2825,0.2839,0.2818,0.282,0.2799,0.2797,0.2787,0.2746,0.2814,0.2813,0.2813,0.2812,0,0.1904,0.195,0.1995,0.2077,0.2104,0.2142,0.2235,0.2285,0.2387,0.2468,0.2501,0.2632,0.2743,0.2809,0.2896,0.289,0.2895,0.2961,0.2938,0.2936,0.2938,0.2899,0.2804,0.2736,0.3016,0.3018,0.3019,0,0.1894,0.1913,0.1982,0.1998,0.2031,0.2095,0.2136,0.2251,0.2305,0.2469,0.2501,0.2653,0.2755,0.2914,0.2981,0.3061,0.2952,0.3064,0.299,0.2974,0.2932,0.2736,0.267,0.3014,0.3015,0.3016,0.3016,0,0.1866,0.1882,0.1911,0.1947,0.1981,0.2026,0.2099,0.2129,0.2271,0.2356,0.2495,0.2601,0.281,0.2934,0.3065,0.309,0.2962,0.308,0.3075,0.2965,0.2745,0.2669,0.2908,0.3023,0.3022,0.3022,0.3021,0.3021,0.1828,0.1834,0.1864,0.1896,0.1925,0.1954,0.1973,0.2058,0.2146,0.2279,0.2424,0.2589,0.2861,0.3068,0.3066,0.3139,0.3003,0.3104,0.3069,0.2877,0.2779,0.3037,0.314,0.314,0.314,0.314,0.314,0,0.179,0.1799,0.1817,0.1843,0.1844,0.1892,0.1943,0.1959,0.2037,0.2224,0.2358,0.2676,0.2858,0.3036,0.3232,0.3175,0.2967,0.311,0.2859,0.2802,0.3088,0.3062,0.3138,0.3138,0.3138,0.3138,0.3138,0.3138,0.1768,0.1768,0.1783,0.1767,0.1778,0.1772,0.1788,0.1832,0.195,0.2143,0.235,0.2517,0.291,0.3207,0.3279,0.3201,0.2972,0.2846,0.2774,0.3048,0.3044,0.304,0.301,0.3074,0.3074,0.2408,0.2404,0.24]},{"header":{"parameterUnit":"m.s-1","parameterCategory":2,"la1":30.2991,"la2":30.254,"lo1":-89.0895,"lo2":-89.0444,"dy":0.0017,"dx":0.0017,"nx":28,"ny":28,"refTime":"2024-04-02T03:00:00:Z","depth":"0","parameterNumber":3,"parameterNumberName":"V-component_of_CURRENTS"},"data":[0,0,0,0,0,0,0,0,0,0,0,0,0,0,0,0,0,0,0,0,0,0,0,0,0,0,0,0,0,0,0,0,0,0,0,0,0,0,0,0,0,0,0,0,0,0,0,0,0,0,0,0,0,0,0,0,0,0,0.0146,0.0145,0,0.0087,0.0086,0.0086,0.0047,0.0047,0.0046,0.0046,-0.0048,-0.005,-0.0052,0,0,0,0,0,0,0,0,0,0,0,0,0,0.0185,0.0185,0.0146,0.0145,0.0145,0.0087,0.0086,0.0085,0.0047,0.0047,0.0046,0.0046,-0.0047,-0.005,-0.0052,0,0,0,0,0,0,0,0,0,0,0,0,0,0.015,0.0184,0.0146,0.0119,0.0117,0.0087,0.0086,0.0085,0.0047,0.0047,0.0046,0.0046,-0.0046,-0.0049,-0.0053,-0.007,0,0,-0.0064,-0.0065,0,0,0,0,0,0,0,0,0.0152,0.0149,0.0124,0.0121,0.0118,0.0075,0.0066,0.0032,0.0047,0.0072,0.0046,0.0046,-0.0009,-0.0015,-0.0027,-0.0075,-0.0079,-0.0064,-0.0066,-0.0068,-0.0069,0,0,0,0,0,0,0,0.0155,0.0151,0.0121,0.0123,0.012,0.0097,0.0092,0.0059,0.0032,0.007,0.0067,0.0063,-0.0011,-0.0024,-0.003,-0.008,-0.0064,-0.0067,-0.0069,-0.0071,-0.0143,-0.0142,0,0,0,0,0,0,0.0167,0.0153,0.0123,0.012,0.0136,0.0097,0.0091,0.0088,0.0033,0.0025,0.0063,0.0061,-0.0018,-0.0026,-0.0033,-0.0053,-0.0068,-0.0071,-0.0073,-0.0143,-0.0143,-0.0142,0,0,0,0,0,0,0.0168,0.0165,0.0126,0.0136,0.013,0.0097,0.0093,0.0087,0.0075,0.0028,0.0019,0.0058,-0.0018,-0.0028,-0.0062,-0.0057,-0.0073,-0.0076,-0.0143,-0.0143,-0.0142,-0.0094,0,0,0,0,0,0,0.0169,0.0166,0.0168,0.0137,0.013,0.0114,0.0093,0.0086,0.0073,0.007,0.0021,0.0012,-0.0019,-0.0057,-0.0066,-0.0062,-0.0079,-0.0143,-0.0143,-0.0143,-0.0096,-0.0092,-0.0089,0,0,0,0,0,0.0171,0.0177,0.0168,0.0164,0.0134,0.0115,0.0109,0.0083,0.0074,0.0071,0.0035,0.0014,-0.006,-0.006,-0.0071,-0.0067,-0.0144,-0.0143,-0.0143,-0.0098,-0.0093,-0.0089,0,0,0,0,0,0,0.0195,0.0172,0.0162,0.0161,0.0142,0.0109,0.0105,0.0088,0.0058,0.0055,0.001,-0.0002,-0.003,-0.0054,-0.0052,-0.0086,-0.0103,-0.0105,-0.0065,-0.0062,-0.0058,-0.0032,-0.0081,0,0,0,0,0,0.0202,0.0201,0.0174,0.0174,0.0167,0.0137,0.0127,0.011,0.0081,0.0068,0.0034,-0.0001,-0.0036,-0.0053,-0.0086,-0.0106,-0.0126,-0.0109,-0.0105,-0.0102,-0.0088,-0.0124,-0.0123,-0.0141,-0.0141,-0.0141,0,0,0.0211,0.02,0.0199,0.018,0.0163,0.0162,0.013,0.012,0.0118,0.0062,0.0048,0.0006,-0.0039,-0.0063,-0.0077,-0.0083,-0.0106,-0.0102,-0.0099,-0.0086,-0.0124,-0.0122,-0.012,-0.014,-0.014,-0.0141,0,0,0.0235,0.022,0.0229,0.0218,0.02,0.018,0.0181,0.0151,0.0137,0.0116,0.0075,0.0037,-0.0008,-0.0042,-0.0065,-0.0062,-0.009,-0.0069,-0.0029,-0.0064,-0.0062,-0.0061,-0.0077,-0.0078,-0.0063,-0.0063,-0.0063,0,0.0248,0.0257,0.0229,0.0236,0.0234,0.0194,0.0207,0.0186,0.0149,0.0141,0.0121,0.005,0.0003,-0.0026,-0.0028,-0.0054,-0.0068,-0.0041,-0.0058,-0.0058,-0.0058,-0.0075,-0.0076,-0.0061,-0.0061,-0.0061,-0.0061,0,0.0279,0.0287,0.0292,0.029,0.0281,0.0285,0.0257,0.0246,0.0224,0.02,0.0167,0.0102,0.0064,0.0038,0.0004,-0.0016,-0.0024,-0.0053,-0.0067,-0.0053,-0.0072,-0.0074,-0.0057,-0.0058,-0.0059,-0.0059,0,0,0.0306,0.0314,0.0316,0.0332,0.0313,0.0313,0.031,0.0297,0.0305,0.0254,0.0258,0.0179,0.0145,0.0118,0.0066,0.0032,0.0008,-0.0001,-0.0004,-0.0011,-0.0049,-0.0053,-0.0056,-0.0022,-0.0022,-0.0023,-0.006,0,0.0342,0.0377,0.0365,0.0397,0.0415,0.0385,0.0392,0.0372,0.0347,0.0338,0.0266,0.0244,0.0176,0.0161,0.0114,0.0035,0.0004,0.0023,-0.0066,-0.0068,-0.0069,-0.0059,-0.0037,-0.0068,-0.0063,-0.0063,-0.0063,0,0.0376,0.0399,0.044,0.0467,0.0472,0.0483,0.0491,0.0492,0.0461,0.0443,0.04,0.0346,0.0285,0.0229,0.0111,0.013,0.0051,-0.0013,-0.0017,-0.0035,-0.0076,-0.0084,-0.0074,-0.0205,-0.0068,-0.0067,-0.0067,0,0.0418,0.0451,0.049,0.0497,0.0516,0.0532,0.0542,0.0526,0.0544,0.0513,0.0522,0.0432,0.0404,0.0289,0.0151,0.0133,0.003,-0.0016,-0.0091,-0.0091,-0.0098,-0.0098,-0.022,-0.0093,-0.0093,-0.0092,-0.0092,0,0.0462,0.0493,0.0518,0.0541,0.0597,0.0589,0.0642,0.0634,0.0643,0.0682,0.0587,0.06,0.0418,0.0333,0.0193,0.0056,0.006,-0.0073,-0.0101,-0.0079,-0.0078,-0.0213,-0.0308,-0.0094,-0.0094,-0.0093,-0.0093,0,0.0499,0.0512,0.0564,0.0602,0.0619,0.0661,0.072,0.0758,0.0757,0.0807,0.0805,0.0727,0.0621,0.0441,0.026,0.0126,-0.0099,-0.0069,-0.002,-0.0043,-0.0241,-0.0334,-0.0477,-0.0557,-0.0157,-0.0157,-0.0158,0,0.0521,0.0553,0.0613,0.0653,0.0675,0.0739,0.0789,0.0812,0.0865,0.0896,0.0931,0.0846,0.0817,0.0553,0.029,0.0057,-0.0097,-0.008,-0.0123,-0.0239,-0.0364,-0.042,-0.0481,-0.0112,-0.0111,-0.0111,-0.0111,0,0.057,0.0588,0.0632,0.0719,0.078,0.086,0.0939,0.1002,0.1046,0.1099,0.1159,0.1141,0.089,0.0674,0.0341,0.0154,-0.018,-0.0085,-0.0227,-0.0351,-0.0398,-0.0492,-0.0091,-0.011,-0.011,-0.011,-0.011,-0.011,0.0605,0.0649,0.0711,0.0793,0.087,0.0983,0.1077,0.117,0.1284,0.1401,0.1354,0.1398,0.106,0.061,0.0314,-0.016,-0.0187,-0.0286,-0.039,-0.0434,-0.0513,-0.0096,-0.0139,-0.0139,-0.0139,-0.0139,-0.0139,0,0.0658,0.0708,0.0785,0.0894,0.0995,0.1025,0.1178,0.1296,0.1462,0.1577,0.1646,0.1573,0.1112,0.0647,-0.0005,-0.0369,-0.0526,-0.0571,-0.0655,-0.0708,-0.0348,-0.0347,-0.0409,-0.0409,-0.0409,-0.0409,-0.0409,-0.0408,0.0689,0.0773,0.0815,0.0986,0.1069,0.1233,0.1338,0.1513,0.1654,0.1869,0.197,0.2003,0.1725,0.0428,-0.041,-0.0647,-0.0917,-0.0972,-0.1114,-0.0876,-0.0857,-0.0839,-0.0859,-0.1028,-0.1028,-0.1409,-0.1413,-0.1416]}],[{"header":{"parameterUnit":"m.s-1","parameterCategory":2,"la1":30.2991,"la2":30.254,"lo1":-89.0895,"lo2":-89.0444,"dy":0.0017,"dx":0.0017,"nx":28,"ny":28,"refTime":"2024-04-02T03:00:00:Z","depth":"2","parameterNumber":2,"parameterNumberName":"U-component_of_CURRENTS"},"data":[0,0,0,0,0,0,0,0,0,0,0,0,0,0,0,0,0,0,0,0,0,0,0,0,0,0,0,0,0,0,0,0,0,0,0,0,0,0,0,0,0,0,0,0,0,0,0,0,0,0,0,0,0,0,0,0,0,0,0.1825,0.1826,0,0.186,0.186,0.1861,0.1865,0.1865,0.1865,0.1865,0.1876,0.1876,0.1877,0,0,0,0,0,0,0,0,0,0,0,0,0,0.1764,0.1765,0.1825,0.1826,0.1826,0.186,0.186,0.1861,0.1865,0.1865,0.1865,0.1864,0.1876,0.1876,0.1877,0,0,0,0,0,0,0,0,0,0,0,0,0,0.1793,0.1766,0.1825,0.1834,0.1835,0.186,0.186,0.1861,0.1865,0.1865,0.1865,0.1864,0.1875,0.1876,0.1877,0.1886,0,0,0.1879,0.1879,0,0,0,0,0,0,0,0,0.1791,0.1795,0.1832,0.1833,0.1835,0.1859,0.1843,0.1869,0.1865,0.1852,0.1865,0.1864,0.1869,0.1871,0.1876,0.1887,0.1887,0.1879,0.1879,0.188,0.188,0,0,0,0,0,0,0,0.1789,0.1793,0.1837,0.1833,0.1834,0.1837,0.184,0.1848,0.186,0.1853,0.1854,0.1861,0.187,0.1875,0.1876,0.1888,0.1879,0.188,0.188,0.188,0.1945,0.1946,0,0,0,0,0,0,0.1788,0.1791,0.1836,0.1838,0.1814,0.1838,0.1842,0.185,0.186,0.1862,0.1861,0.1861,0.1874,0.1875,0.1876,0.1936,0.188,0.188,0.1881,0.1944,0.1945,0.1947,0,0,0,0,0,0,0.1787,0.1792,0.1835,0.1817,0.1823,0.184,0.1849,0.1851,0.1862,0.1867,0.1868,0.187,0.1874,0.1875,0.1892,0.1934,0.1881,0.1881,0.1942,0.1944,0.1946,0.2024,0,0,0,0,0,0,0.1785,0.1791,0.1799,0.1817,0.1824,0.1855,0.1849,0.1852,0.1867,0.1868,0.1875,0.1876,0.1874,0.1891,0.1893,0.1934,0.1882,0.1941,0.1943,0.1945,0.202,0.2029,0.2036,0,0,0,0,0,0.1783,0.1793,0.1799,0.1805,0.1833,0.1856,0.186,0.187,0.1868,0.1877,0.1884,0.1876,0.1908,0.1893,0.1894,0.1937,0.1939,0.1942,0.1945,0.2016,0.2027,0.2036,0,0,0,0,0,0,0.1769,0.1795,0.1802,0.1819,0.184,0.1857,0.1869,0.1875,0.1888,0.1889,0.1887,0.1889,0.1922,0.1913,0.1896,0.1962,0.1925,0.1928,0.1979,0.1988,0.1996,0.2002,0.1882,0,0,0,0,0,0.177,0.1787,0.1811,0.1826,0.1838,0.1855,0.1866,0.1875,0.1888,0.1894,0.1901,0.1913,0.1936,0.1947,0.1957,0.1989,0.1991,0.2018,0.2026,0.2033,0.2039,0.2073,0.2085,0.1956,0.1956,0.1956,0,0,0.1769,0.1787,0.1795,0.1825,0.1841,0.187,0.1861,0.1884,0.1912,0.1893,0.193,0.1938,0.1948,0.1989,0.2004,0.1988,0.2074,0.2037,0.2043,0.2045,0.2077,0.209,0.2101,0.1958,0.1958,0.1958,0,0,0.1777,0.1792,0.1811,0.1833,0.1864,0.1881,0.189,0.1915,0.1931,0.1964,0.1966,0.1996,0.202,0.2046,0.206,0.2116,0.2112,0.2123,0.2175,0.2208,0.2219,0.2229,0.2262,0.2273,0.2131,0.2131,0.2131,0,0.1775,0.1806,0.1819,0.1848,0.1873,0.189,0.1921,0.1944,0.1972,0.1996,0.1983,0.2047,0.2052,0.2119,0.2143,0.2137,0.2151,0.214,0.222,0.2229,0.2238,0.2269,0.2281,0.2135,0.2135,0.2134,0.2134,0,0.18,0.183,0.1845,0.1892,0.1918,0.1948,0.1984,0.2013,0.2033,0.206,0.2119,0.2132,0.2171,0.2187,0.2184,0.2259,0.2249,0.2224,0.2197,0.2256,0.2284,0.2296,0.2141,0.2139,0.2138,0.2137,0,0,0.1787,0.1851,0.1858,0.1889,0.1946,0.1969,0.2025,0.2083,0.2128,0.2158,0.2216,0.2266,0.2275,0.2291,0.2299,0.2332,0.2411,0.2311,0.2311,0.2347,0.2493,0.25,0.2512,0.2402,0.2404,0.2406,0.2494,0,0.1808,0.1862,0.1895,0.1957,0.1991,0.2033,0.2088,0.214,0.2184,0.2242,0.2276,0.233,0.2316,0.2343,0.2379,0.2398,0.2442,0.2389,0.2427,0.2428,0.2431,0.2526,0.234,0.2403,0.2504,0.2506,0.2508,0,0.1828,0.1864,0.1919,0.1998,0.2018,0.2058,0.2147,0.22,0.2286,0.2321,0.2381,0.2403,0.2473,0.2438,0.2518,0.2487,0.2503,0.2511,0.2514,0.25,0.2457,0.2358,0.2419,0.2526,0.2524,0.2523,0.2522,0,0.1807,0.1885,0.1928,0.1954,0.2041,0.2079,0.2133,0.2223,0.2268,0.2374,0.2408,0.2492,0.2529,0.2566,0.2596,0.2563,0.2672,0.2622,0.2648,0.2648,0.2485,0.2468,0.2685,0.2684,0.2684,0.2684,0.2684,0,0.1819,0.1854,0.1921,0.1944,0.2005,0.2074,0.2146,0.2218,0.2306,0.2366,0.2444,0.2499,0.2562,0.2624,0.2637,0.2696,0.2711,0.2685,0.2683,0.2509,0.2494,0.2584,0.2571,0.2687,0.2687,0.2686,0.2685,0,0.1788,0.1835,0.1882,0.1966,0.1994,0.2035,0.2129,0.2176,0.2279,0.2355,0.2388,0.2514,0.2619,0.2681,0.2759,0.2752,0.2799,0.2812,0.2614,0.2589,0.2738,0.2728,0.285,0.2851,0.2852,0.2853,0.2854,0,0.1778,0.1798,0.1871,0.1889,0.1925,0.1991,0.2033,0.2146,0.2195,0.2357,0.2386,0.2531,0.2624,0.2767,0.2803,0.2867,0.2865,0.271,0.2617,0.2776,0.2761,0.275,0.2739,0.2429,0.2426,0.2424,0.2422,0,0.1752,0.1771,0.1801,0.184,0.1877,0.1921,0.1994,0.2021,0.2159,0.2242,0.2373,0.247,0.2641,0.2659,0.2766,0.2756,0.2687,0.2669,0.2891,0.2429,0.239,0.2372,0.2373,0.2402,0.2404,0.2405,0.2406,0.2407,0.1717,0.1723,0.1757,0.1791,0.1821,0.1848,0.1866,0.1945,0.2027,0.2142,0.228,0.2383,0.2477,0.2572,0.2527,0.2498,0.2667,0.2536,0.2538,0.2544,0.2492,0.2459,0.2474,0.2476,0.2478,0.248,0.2482,0,0.1677,0.1691,0.171,0.1739,0.1738,0.1791,0.1834,0.1838,0.1906,0.2052,0.2164,0.209,0.2162,0.2237,0.2192,0.2224,0.2134,0.2114,0.1973,0.2,0.2022,0.1936,0.1773,0.177,0.1768,0.1765,0,0,0.1657,0.1656,0.1669,0.1657,0.1675,0.1667,0.1679,0.1698,0.1777,0.182,0.1887,0.2093,0.2224,0.1974,0.1963,0.1864,0.1896,0.1789,0.2374,0.2239,0.2256,0.2306,0.2212,0,0,0,0,0]},{"header":{"parameterUnit":"m.s-1","parameterCategory":2,"la1":30.2991,"la2":30.254,"lo1":-89.0895,"lo2":-89.0444,"dy":0.0017,"dx":0.0017,"nx":28,"ny":28,"refTime":"2024-04-02T03:00:00:Z","depth":"2","parameterNumber":3,"parameterNumberName":"V-component_of_CURRENTS"},"data":[0,0,0,0,0,0,0,0,0,0,0,0,0,0,0,0,0,0,0,0,0,0,0,0,0,0,0,0,0,0,0,0,0,0,0,0,0,0,0,0,0,0,0,0,0,0,0,0,0,0,0,0,0,0,0,0,0,0,0.0042,0.0042,0,-0.0012,-0.0013,-0.0014,-0.005,-0.005,-0.005,-0.005,-0.014,-0.0142,-0.0145,0,0,0,0,0,0,0,0,0,0,0,0,0,0.0075,0.0075,0.0042,0.0042,0.0041,-0.0012,-0.0013,-0.0014,-0.005,-0.005,-0.005,-0.005,-0.0139,-0.0142,-0.0145,0,0,0,0,0,0,0,0,0,0,0,0,0,0.0043,0.0075,0.0042,0.0018,0.0015,-0.0012,-0.0013,-0.0014,-0.005,-0.005,-0.005,-0.0051,-0.0138,-0.0142,-0.0145,-0.0162,0,0,-0.0155,-0.0157,0,0,0,0,0,0,0,0,0.0045,0.0042,0.0022,0.0019,0.0016,-0.0023,-0.0034,-0.0065,-0.005,-0.0027,-0.005,-0.0051,-0.0103,-0.011,-0.0121,-0.0166,-0.017,-0.0156,-0.0158,-0.0159,-0.016,0,0,0,0,0,0,0,0.0048,0.0044,0.0019,0.0021,0.0018,-0.0004,-0.0009,-0.004,-0.0065,-0.0029,-0.0031,-0.0035,-0.0105,-0.0117,-0.0123,-0.0171,-0.0156,-0.0159,-0.0161,-0.0162,-0.0229,-0.0229,0,0,0,0,0,0,0.0059,0.0046,0.0021,0.0018,0.0032,-0.0005,-0.001,-0.0012,-0.0064,-0.0071,-0.0035,-0.0037,-0.0111,-0.0119,-0.0127,-0.0142,-0.0159,-0.0162,-0.0164,-0.0229,-0.0229,-0.0229,0,0,0,0,0,0,0.006,0.0058,0.0023,0.0032,0.0026,-0.0004,-0.0007,-0.0012,-0.0022,-0.0068,-0.0076,-0.0038,-0.0112,-0.0122,-0.0153,-0.0146,-0.0164,-0.0167,-0.023,-0.0229,-0.0229,-0.0179,0,0,0,0,0,0,0.0061,0.0058,0.0061,0.0033,0.0026,0.0014,-0.0006,-0.0013,-0.0024,-0.0027,-0.0074,-0.0082,-0.0113,-0.0148,-0.0157,-0.0151,-0.017,-0.023,-0.0229,-0.0229,-0.0181,-0.0177,-0.0173,0,0,0,0,0,0.0063,0.007,0.0062,0.0059,0.0031,0.0015,0.0009,-0.0015,-0.0024,-0.0025,-0.0059,-0.0081,-0.0151,-0.0151,-0.0161,-0.0156,-0.023,-0.023,-0.0229,-0.0182,-0.0177,-0.0173,0,0,0,0,0,0,0.0087,0.0066,0.0057,0.0058,0.0041,0.0009,0.0007,-0.0009,-0.0037,-0.004,-0.0083,-0.0095,-0.012,-0.0144,-0.0143,-0.0173,-0.0192,-0.0193,-0.0153,-0.0148,-0.0145,-0.012,-0.0173,0,0,0,0,0,0.0094,0.0094,0.007,0.0072,0.0066,0.0038,0.0028,0.0013,-0.0015,-0.0026,-0.0059,-0.0093,-0.0126,-0.0141,-0.0174,-0.0192,-0.0214,-0.0193,-0.019,-0.0186,-0.0173,-0.021,-0.0208,-0.0227,-0.0227,-0.0227,0,0,0.0104,0.0093,0.0093,0.0077,0.0062,0.0061,0.0031,0.0023,0.0023,-0.0033,-0.0043,-0.0084,-0.0129,-0.015,-0.0163,-0.0169,-0.0192,-0.0185,-0.0182,-0.017,-0.0209,-0.0207,-0.0206,-0.0226,-0.0226,-0.0227,0,0,0.0128,0.0116,0.0125,0.0116,0.0099,0.0082,0.0083,0.0055,0.0043,0.0025,-0.0016,-0.0051,-0.0094,-0.0127,-0.0149,-0.0143,-0.0174,-0.015,-0.0109,-0.0145,-0.0144,-0.0143,-0.0163,-0.0164,-0.0144,-0.0144,-0.0144,0,0.0142,0.0152,0.0126,0.0134,0.0134,0.0096,0.0109,0.009,0.0057,0.0049,0.0031,-0.0037,-0.0082,-0.0109,-0.0109,-0.0135,-0.0152,-0.0123,-0.014,-0.0139,-0.0139,-0.016,-0.0162,-0.0141,-0.0142,-0.0142,-0.0142,0,0.0173,0.0183,0.0189,0.0188,0.0181,0.0187,0.0161,0.0152,0.0132,0.0109,0.0079,0.0017,-0.0019,-0.0043,-0.0077,-0.0095,-0.0106,-0.0134,-0.0149,-0.0134,-0.0157,-0.016,-0.0138,-0.0139,-0.0139,-0.014,0,0,0.0201,0.0211,0.0213,0.0229,0.0214,0.0214,0.0214,0.0203,0.0211,0.0164,0.0167,0.0095,0.0062,0.0036,-0.0014,-0.0048,-0.0073,-0.0081,-0.0084,-0.0096,-0.0136,-0.0143,-0.0148,-0.0103,-0.0103,-0.0103,-0.015,0,0.0237,0.0273,0.0262,0.0296,0.0315,0.0286,0.0295,0.0277,0.0253,0.0244,0.0177,0.0155,0.0093,0.0078,0.0033,-0.0047,-0.0079,-0.0056,-0.0152,-0.0155,-0.016,-0.0151,-0.0148,-0.0189,-0.0153,-0.0154,-0.0154,0,0.0271,0.0295,0.0337,0.0365,0.037,0.0383,0.0391,0.0394,0.0363,0.0346,0.0306,0.0253,0.0194,0.0141,0.0024,0.0044,-0.0034,-0.0099,-0.0103,-0.0126,-0.0168,-0.02,-0.0197,-0.016,-0.0159,-0.0159,-0.0159,0,0.0311,0.0346,0.0386,0.0394,0.0414,0.0432,0.0443,0.0428,0.0445,0.0414,0.042,0.0334,0.0304,0.0192,0.0056,0.0041,-0.0068,-0.0111,-0.0189,-0.019,-0.0214,-0.0216,-0.0187,-0.0187,-0.0187,-0.0187,-0.0187,0,0.0354,0.0386,0.0414,0.0437,0.0493,0.0487,0.054,0.0532,0.054,0.0574,0.0483,0.049,0.0316,0.0228,0.0093,-0.0047,-0.0042,-0.0172,-0.0202,-0.0195,-0.0196,-0.0194,-0.0194,-0.0189,-0.0188,-0.0188,-0.0188,0,0.0391,0.0405,0.0458,0.0497,0.0515,0.0557,0.0615,0.0651,0.0649,0.0692,0.069,0.0608,0.0497,0.0322,0.0142,0.0014,-0.013,-0.0182,-0.0152,-0.0178,-0.0237,-0.0234,-0.0274,-0.0275,-0.0275,-0.0276,-0.0276,0,0.0413,0.0444,0.0506,0.0546,0.057,0.0634,0.0681,0.0704,0.0751,0.0773,0.0802,0.0712,0.0669,0.0405,0.015,-0.008,-0.0114,-0.0224,-0.0262,-0.022,-0.0246,-0.0242,-0.0238,-0.0275,-0.0275,-0.0275,-0.0276,0,0.0459,0.0479,0.0522,0.0609,0.0669,0.0745,0.0821,0.0877,0.0915,0.0959,0.1003,0.0974,0.0719,0.0482,0.0156,-0.0013,-0.0192,-0.0237,-0.0207,-0.0248,-0.0224,-0.0248,-0.0244,-0.0278,-0.0278,-0.0278,-0.0277,-0.0277,0.0491,0.0535,0.0596,0.0678,0.0753,0.0857,0.0941,0.1022,0.1121,0.1203,0.1159,0.1131,0.0833,0.0425,0.0124,-0.0199,-0.0188,-0.0304,-0.0303,-0.0301,-0.0287,-0.0265,-0.0323,-0.0323,-0.0323,-0.0323,-0.0323,0,0.0536,0.0587,0.0663,0.0769,0.0863,0.0899,0.1034,0.1121,0.1259,0.1322,0.1362,0.1092,0.0811,0.048,0.0006,-0.0276,-0.0316,-0.0369,-0.0355,-0.0351,-0.0347,-0.0336,-0.0386,-0.0386,-0.0387,-0.0388,0,0,0.0563,0.064,0.0681,0.0843,0.0928,0.1078,0.117,0.129,0.1374,0.1442,0.1431,0.1353,0.0939,0.0591,0.0183,-0.0086,-0.015,-0.0151,-0.0075,-0.0006,0.0002,-0.029,-0.0265,0,0,0,0,0]}],[{"header":{"parameterUnit":"m.s-1","parameterCategory":2,"la1":30.2991,"la2":30.254,"lo1":-89.0895,"lo2":-89.0444,"dy":0.0017,"dx":0.0017,"nx":28,"ny":28,"refTime":"2024-04-02T03:00:00:Z","depth":"4","parameterNumber":2,"parameterNumberName":"U-component_of_CURRENTS"},"data":[0,0,0,0,0,0,0,0,0,0,0,0,0,0,0,0,0,0,0,0,0,0,0,0,0,0,0,0,0,0,0,0,0,0,0,0,0,0,0,0,0,0,0,0,0,0,0,0,0,0,0,0,0,0,0,0,0,0,0.1149,0.115,0,0.121,0.121,0.1211,0.1259,0.1259,0.126,0.126,0.1323,0.1324,0.1325,0,0,0,0,0,0,0,0,0,0,0,0,0,0.107,0.1071,0.1149,0.115,0.1151,0.121,0.121,0.1211,0.1259,0.1259,0.126,0.1261,0.1323,0.1324,0.1325,0,0,0,0,0,0,0,0,0,0,0,0,0,0.1114,0.1072,0.1149,0.1182,0.1186,0.121,0.1211,0.1211,0.1259,0.1259,0.126,0.1261,0.1322,0.1324,0.1325,0.1319,0,0,0.1331,0.1331,0,0,0,0,0,0,0,0,0.1112,0.1117,0.1176,0.118,0.1184,0.1229,0.1206,0.1248,0.1258,0.123,0.1261,0.1261,0.1292,0.1296,0.1304,0.1322,0.1325,0.1331,0.1332,0.1333,0.1333,0,0,0,0,0,0,0,0.1108,0.1114,0.1172,0.1177,0.1182,0.1193,0.12,0.1214,0.1254,0.1232,0.1236,0.1244,0.1294,0.1302,0.1306,0.1326,0.1331,0.1332,0.1333,0.1334,0.1419,0.142,0,0,0,0,0,0,0.1102,0.1112,0.117,0.1174,0.115,0.1194,0.1202,0.1213,0.1254,0.1262,0.1244,0.1246,0.1299,0.1304,0.1308,0.1373,0.1333,0.1334,0.1335,0.1418,0.1419,0.1421,0,0,0,0,0,0,0.11,0.1107,0.1168,0.1145,0.1153,0.1195,0.1206,0.1213,0.1249,0.1263,0.1271,0.1275,0.13,0.1306,0.1347,0.1373,0.1335,0.1337,0.1416,0.1418,0.142,0.1457,0,0,0,0,0,0,0.1098,0.1106,0.1123,0.1144,0.1155,0.1198,0.1206,0.1214,0.1251,0.1256,0.1292,0.1297,0.1301,0.1344,0.1349,0.1374,0.1338,0.1415,0.1417,0.1419,0.1454,0.146,0.1465,0,0,0,0,0,0.1095,0.1109,0.1124,0.1131,0.1173,0.1199,0.1206,0.1237,0.1252,0.1271,0.1299,0.1297,0.1362,0.1347,0.1351,0.1378,0.1414,0.1417,0.1419,0.1452,0.1459,0.1464,0,0,0,0,0,0,0.1084,0.1116,0.1132,0.1157,0.1185,0.1208,0.1232,0.125,0.1287,0.13,0.1312,0.1319,0.1362,0.1367,0.135,0.141,0.1388,0.1392,0.1411,0.1417,0.1423,0.1426,0.1339,0,0,0,0,0,0.1089,0.1111,0.114,0.1163,0.118,0.1211,0.123,0.1252,0.1281,0.13,0.1325,0.1352,0.1372,0.1393,0.1409,0.1445,0.1461,0.1466,0.1471,0.1475,0.1482,0.1534,0.1544,0.143,0.143,0.143,0,0,0.1091,0.1113,0.1126,0.1164,0.1189,0.1214,0.1226,0.1264,0.1287,0.1299,0.135,0.137,0.1384,0.1423,0.1443,0.1435,0.1517,0.1479,0.1482,0.1487,0.1538,0.1549,0.1559,0.1432,0.1431,0.1431,0,0,0.1096,0.1128,0.1146,0.1172,0.1216,0.1234,0.1251,0.1292,0.1318,0.1362,0.1376,0.1416,0.1453,0.147,0.1479,0.1524,0.1539,0.1535,0.1572,0.1622,0.1632,0.164,0.1677,0.1689,0.1543,0.1543,0.1543,0,0.1099,0.1125,0.1156,0.118,0.1204,0.1245,0.1268,0.1297,0.1349,0.1376,0.1386,0.146,0.1471,0.1515,0.1534,0.1536,0.1568,0.1545,0.1629,0.1638,0.1646,0.1682,0.1694,0.1546,0.1545,0.1545,0.1545,0,0.1111,0.1142,0.1157,0.12,0.1229,0.1259,0.1299,0.1341,0.138,0.1412,0.1477,0.1504,0.1555,0.1561,0.1563,0.163,0.1635,0.1624,0.1612,0.166,0.1694,0.1707,0.1549,0.1548,0.1547,0.1547,0,0,0.1088,0.1152,0.1159,0.1184,0.1244,0.1266,0.1315,0.1368,0.142,0.1469,0.1534,0.157,0.161,0.1625,0.1641,0.1682,0.1765,0.169,0.1691,0.1724,0.1883,0.1771,0.1774,0.1781,0.1784,0.1786,0.1883,0,0.1089,0.113,0.1164,0.1209,0.1234,0.1289,0.1333,0.1391,0.1454,0.1531,0.157,0.1641,0.1626,0.1676,0.1713,0.1759,0.18,0.1739,0.1833,0.1835,0.1729,0.1785,0.1793,0.1892,0.1895,0.1897,0.1898,0,0.1083,0.1114,0.1153,0.1222,0.1241,0.1281,0.1373,0.1422,0.1528,0.1585,0.1664,0.1711,0.1789,0.1771,0.1869,0.184,0.1869,0.1889,0.1893,0.1785,0.1746,0.1834,0.1921,0.1919,0.1917,0.1916,0.1915,0,0.104,0.1105,0.1136,0.1159,0.1242,0.1285,0.1344,0.1448,0.1508,0.1644,0.1715,0.1801,0.1874,0.1921,0.1967,0.1943,0.2067,0.2033,0.1953,0.1946,0.2,0.1989,0.21,0.21,0.21,0.2099,0.2099,0,0.1014,0.1043,0.1128,0.1145,0.1206,0.1278,0.1365,0.1445,0.157,0.1654,0.1755,0.1831,0.1922,0.1996,0.2013,0.2025,0.2108,0.1971,0.1968,0.2012,0.2002,0.2008,0.1997,0.2103,0.2102,0.2101,0.2101,0,0.0959,0.1011,0.1055,0.115,0.1187,0.1238,0.1371,0.1436,0.1571,0.169,0.1743,0.1888,0.1989,0.2052,0.2144,0.208,0.2103,0.2083,0.2141,0.2137,0.1936,0.1925,0.2002,0.1999,0.1997,0.1995,0.1993,0,0.0931,0.0947,0.1047,0.1084,0.1134,0.1223,0.1285,0.1424,0.1498,0.1704,0.1751,0.1907,0.1986,0.2023,0.2093,0.2124,0.2091,0.2083,0.1986,0.1939,0.193,0.1922,0.1915,0.1989,0.1988,0.1987,0.1987,0,0.0874,0.0919,0.0959,0.1036,0.1104,0.1171,0.1278,0.1321,0.1489,0.1617,0.1729,0.1796,0.1906,0.1963,0.2008,0.2017,0.2075,0.2055,0.2059,0.1968,0.1924,0.1915,0.1911,0.1978,0.1979,0.198,0.198,0,0.0834,0.0849,0.0911,0.0978,0.1054,0.1106,0.117,0.1262,0.1349,0.157,0.1602,0.1765,0.1894,0.1911,0.195,0.1957,0.1916,0.1832,0.1847,0.1858,0.1763,0.1682,0.1671,0,0,0,0,0,0.0788,0.08,0.085,0.0913,0.0988,0.104,0.1156,0.1225,0.1381,0.1421,0.151,0.1607,0.1691,0.1768,0.1746,0.188,0.1917,0.1845,0.1825,0.1929,0.1939,0.1838,0,0,0,0,0,0,0.0751,0.0787,0.0818,0.0852,0.0887,0.096,0.1032,0.1141,0.1169,0.1332,0.1385,0.1504,0.1604,0.1691,0.1715,0.1737,0.1689,0.1939,0.1935,0.1923,0.1932,0.194,0.1841,0,0,0,0,0]},{"header":{"parameterUnit":"m.s-1","parameterCategory":2,"la1":30.2991,"la2":30.254,"lo1":-89.0895,"lo2":-89.0444,"dy":0.0017,"dx":0.0017,"nx":28,"ny":28,"refTime":"2024-04-02T03:00:00:Z","depth":"4","parameterNumber":3,"parameterNumberName":"V-component_of_CURRENTS"},"data":[0,0,0,0,0,0,0,0,0,0,0,0,0,0,0,0,0,0,0,0,0,0,0,0,0,0,0,0,0,0,0,0,0,0,0,0,0,0,0,0,0,0,0,0,0,0,0,0,0,0,0,0,0,0,0,0,0,0,-0.0047,-0.0047,0,-0.0082,-0.0082,-0.0083,-0.0115,-0.0115,-0.0116,-0.0116,-0.0187,-0.0189,-0.019,0,0,0,0,0,0,0,0,0,0,0,0,0,-0.0038,-0.0038,-0.0047,-0.0047,-0.0048,-0.0082,-0.0082,-0.0083,-0.0115,-0.0115,-0.0116,-0.0116,-0.0187,-0.0188,-0.019,0,0,0,0,0,0,0,0,0,0,0,0,0,-0.0055,-0.0038,-0.0047,-0.0067,-0.0069,-0.0082,-0.0082,-0.0083,-0.0115,-0.0115,-0.0116,-0.0116,-0.0186,-0.0188,-0.0191,-0.0196,0,0,-0.0198,-0.0199,0,0,0,0,0,0,0,0,-0.0054,-0.0056,-0.0064,-0.0066,-0.0068,-0.0094,-0.0105,-0.0122,-0.0115,-0.0099,-0.0116,-0.0117,-0.0158,-0.0163,-0.0169,-0.0199,-0.0202,-0.0198,-0.02,-0.0201,-0.0201,0,0,0,0,0,0,0,-0.0053,-0.0055,-0.0062,-0.0064,-0.0067,-0.0085,-0.0087,-0.0109,-0.0127,-0.01,-0.0102,-0.0104,-0.016,-0.0167,-0.0171,-0.0203,-0.0198,-0.02,-0.0202,-0.0203,-0.0243,-0.0242,0,0,0,0,0,0,-0.0045,-0.0053,-0.0061,-0.0063,-0.0061,-0.0084,-0.0087,-0.0086,-0.0126,-0.0132,-0.0104,-0.0106,-0.0162,-0.0168,-0.0174,-0.0178,-0.0201,-0.0203,-0.0204,-0.0243,-0.0243,-0.0242,0,0,0,0,0,0,-0.0044,-0.0045,-0.0059,-0.0058,-0.0061,-0.0084,-0.0082,-0.0086,-0.0094,-0.0128,-0.0135,-0.0107,-0.0163,-0.0171,-0.0192,-0.0182,-0.0204,-0.0206,-0.0243,-0.0243,-0.0242,-0.0191,0,0,0,0,0,0,-0.0044,-0.0044,-0.0042,-0.0058,-0.0061,-0.0061,-0.0081,-0.0087,-0.0094,-0.0097,-0.0134,-0.0141,-0.0164,-0.0188,-0.0194,-0.0185,-0.0208,-0.0244,-0.0243,-0.0243,-0.0193,-0.0188,-0.0184,0,0,0,0,0,-0.0043,-0.0033,-0.0041,-0.0042,-0.0056,-0.0061,-0.0064,-0.0083,-0.0094,-0.0093,-0.012,-0.0139,-0.0188,-0.019,-0.0197,-0.0189,-0.0244,-0.0243,-0.0243,-0.0195,-0.0189,-0.0185,0,0,0,0,0,0,-0.0028,-0.0036,-0.0045,-0.0039,-0.0048,-0.0066,-0.0066,-0.0079,-0.0099,-0.0103,-0.0138,-0.0146,-0.0162,-0.0182,-0.0183,-0.0198,-0.0218,-0.0219,-0.0179,-0.0174,-0.017,-0.0156,-0.021,0,0,0,0,0,-0.0022,-0.0018,-0.0031,-0.0026,-0.0028,-0.0047,-0.0052,-0.0063,-0.0082,-0.0091,-0.0115,-0.0141,-0.0163,-0.0174,-0.0197,-0.0205,-0.0232,-0.0204,-0.0199,-0.0196,-0.0189,-0.0227,-0.0226,-0.0239,-0.0239,-0.0239,0,0,-0.0015,-0.0019,-0.0018,-0.0023,-0.0032,-0.0026,-0.0052,-0.0054,-0.0049,-0.0095,-0.01,-0.013,-0.0163,-0.0173,-0.0181,-0.0189,-0.0206,-0.0195,-0.0191,-0.0186,-0.0226,-0.0225,-0.0224,-0.0239,-0.0239,-0.0239,0,0,0.0006,-0.0001,0.001,0.0007,-0.0001,-0.0011,-0.0009,-0.0024,-0.0032,-0.0041,-0.0073,-0.0095,-0.0126,-0.0146,-0.016,-0.0147,-0.0186,-0.0154,-0.0119,-0.0156,-0.0155,-0.0155,-0.0184,-0.0187,-0.0148,-0.0148,-0.0148,0,0.0014,0.0028,0.0012,0.0024,0.0026,0.0,0.0015,0.0006,-0.0014,-0.0019,-0.0036,-0.0083,-0.0111,-0.0125,-0.0119,-0.0137,-0.0164,-0.0134,-0.0151,-0.0151,-0.0152,-0.0182,-0.0186,-0.0146,-0.0146,-0.0146,-0.0146,0,0.0044,0.0055,0.0063,0.0069,0.0069,0.0078,0.0067,0.0064,0.0048,0.0032,0.0012,-0.0028,-0.0055,-0.0067,-0.0089,-0.0102,-0.0122,-0.0144,-0.0162,-0.0147,-0.018,-0.0185,-0.0142,-0.0143,-0.0144,-0.0144,0,0,0.006,0.008,0.0082,0.0096,0.0095,0.01,0.0109,0.0107,0.0111,0.0083,0.0081,0.0043,0.0015,-0.0003,-0.0036,-0.0064,-0.0092,-0.0099,-0.0103,-0.0126,-0.0172,-0.017,-0.0175,-0.0121,-0.0122,-0.0123,-0.0192,0,0.0087,0.0122,0.0123,0.0155,0.0172,0.0159,0.0172,0.0164,0.0148,0.0139,0.0095,0.0079,0.0041,0.0029,-0.0006,-0.0073,-0.0103,-0.007,-0.0186,-0.0189,-0.0187,-0.018,-0.0124,-0.0196,-0.0197,-0.0198,-0.0199,0,0.0113,0.0135,0.0174,0.0202,0.0208,0.0223,0.0233,0.0243,0.0223,0.021,0.0181,0.0139,0.0101,0.0064,-0.0037,-0.0017,-0.0086,-0.014,-0.0144,-0.0162,-0.0195,-0.0217,-0.0208,-0.0207,-0.0207,-0.0206,-0.0205,0,0.013,0.0168,0.0202,0.0211,0.0238,0.0254,0.0268,0.0262,0.0279,0.0255,0.0256,0.019,0.0166,0.007,-0.0036,-0.0042,-0.0154,-0.0179,-0.0241,-0.0242,-0.0247,-0.0247,-0.0252,-0.0252,-0.0252,-0.0252,-0.0252,0,0.0155,0.0181,0.0215,0.0234,0.0278,0.0285,0.0325,0.0325,0.0334,0.0359,0.0297,0.0295,0.0165,0.0085,-0.0022,-0.014,-0.0146,-0.0231,-0.0259,-0.0223,-0.0219,-0.0251,-0.025,-0.0255,-0.0254,-0.0253,-0.0253,0,0.0167,0.0188,0.023,0.0271,0.0289,0.032,0.0376,0.0401,0.0406,0.0436,0.0434,0.037,0.0268,0.0132,-0.0023,-0.011,-0.0232,-0.0275,-0.0215,-0.024,-0.03,-0.0296,-0.0351,-0.0351,-0.0352,-0.0352,-0.0352,0,0.0176,0.0198,0.0258,0.029,0.0313,0.0366,0.0405,0.0434,0.0469,0.0485,0.0501,0.042,0.0358,0.0154,-0.0004,-0.021,-0.0242,-0.0305,-0.0311,-0.0288,-0.031,-0.0305,-0.03,-0.0353,-0.0353,-0.0353,-0.0353,0,0.019,0.0209,0.0245,0.0314,0.0364,0.0429,0.0489,0.0523,0.0563,0.0568,0.0567,0.0463,0.0347,0.0171,0.001,-0.014,-0.0265,-0.031,-0.0311,-0.0316,-0.0292,-0.0312,-0.0306,-0.0355,-0.0354,-0.0354,-0.0354,0,0.0194,0.0219,0.0267,0.033,0.0399,0.0471,0.0507,0.0558,0.0597,0.062,0.0618,0.0496,0.0426,0.0207,0.0059,-0.0089,-0.0133,-0.0183,-0.0191,-0.0191,-0.0129,-0.0074,-0.0088,0,0,0,0,0,0.0191,0.0219,0.028,0.035,0.0425,0.0471,0.0553,0.0586,0.0629,0.0641,0.0637,0.0535,0.033,0.0237,0.009,0.0022,-0.0181,-0.0157,-0.0247,-0.0362,-0.0361,-0.0316,0,0,0,0,0,0,0.0185,0.0232,0.0271,0.036,0.0414,0.05,0.0558,0.0592,0.0605,0.0627,0.0522,0.049,0.0284,0.0412,0.0084,0.0038,-0.004,-0.0251,-0.0254,-0.0363,-0.0362,-0.036,-0.0314,0,0,0,0,0]}]]